{"data":{"norad_id":65569,"epoch":"2026-05-25T02:11:24.794016Z","epoch_age_seconds":60976,"freshness":"FRESH","line1":"1 65569U 25203E   26145.09125919  .00000078  00000+0  60396-4 0  9999","line2":"2 65569  81.3071  32.3374 0004830 252.0960 107.9670 13.83404149 35492","mean_motion":13.83404149,"eccentricity":0.000483,"inclination_deg":81.3071,"raan_deg":32.3374,"arg_perigee_deg":252.096,"mean_anomaly_deg":107.967,"bstar":6.0396e-5,"rev_number":3549,"period_min":104.09105690777,"perigee_km":948.29703740398,"apogee_km":955.37779268891,"semimajor_km":7329.9744150464,"source":"CELESTRAK","updated_at":"2026-05-25T13:38:25.167868Z"}}